User: anonymous   Login
Location: Mt. Cuba Astronomical Observatory
(39.8100°N, 75.6300°W)
Time: 23:32:22
(UTC-04:00)
Language:

Cosmos 2058 - Orbit

View from above orbital plane
View from above orbital plane
View from above satellite
View from above satellite

Ground track
Ground track

The orbit data is extracted from the following two-line orbital elements,

1 20465U 90010A   15212.09019192  .00000893  00000-0  75879-4 0  9999
2 20465 082.4900 188.0875 0017710 088.1332 272.1919 14.96571931382538
Epoch (UTC): 31 July 2015 02:09:52
Eccentricity: 0.0017710
inclination: 82.4900°
perigee height: 565 km
apogee height: 590 km
right ascension of ascending node: 188.0875°
argument of perigee: 88.1332°
revolutions per day: 14.96571931
mean anomaly at epoch: 272.1919°
orbit number at epoch: 38253

The dashed part of the orbit path shows where the satellite is in the earth's shadow,  

DLR